EAG36WA EGAC-EGBB

Flight info

Callsign EAG36WA
Flight time 0h 58m
Altitude 17000
Route DUFFY L15 PEPOD Q38 MAKUX
Aircraft AT76/M-SDFGIRY/S

Departure

Time 2026-04-28 13:22
Airport George Best Belfast City Airport (EGAC)

Arrival

Time 2026-04-28 14:20
Airport Birmingham Airport (EGBB)
Time Latitude Longitude Altitude Speed Heading
2026-04-28 12:58 54.61433 -5.87217 21 ft 0 kts 124°
2026-04-28 13:14 54.61436 -5.87226 20 ft 4 kts 126°
2026-04-28 13:15 54.61453 -5.87261 21 ft 4 kts 141°
2026-04-28 13:15 54.61475 -5.87281 20 ft 4 kts 184°
2026-04-28 13:15 54.61489 -5.87274 20 ft 1 kts 214°
2026-04-28 13:15 54.61490 -5.87272 20 ft 0 kts 214°
2026-04-28 13:18 54.61479 -5.87286 23 ft 5 kts 214°
2026-04-28 13:18 54.61433 -5.87340 20 ft 10 kts 216°
2026-04-28 13:18 54.61383 -5.87445 20 ft 13 kts 224°
2026-04-28 13:19 54.61330 -5.87507 20 ft 10 kts 213°
2026-04-28 13:19 54.61265 -5.87582 20 ft 6 kts 216°
2026-04-28 13:19 54.61220 -5.87643 19 ft 10 kts 217°
2026-04-28 13:19 54.61156 -5.87717 21 ft 12 kts 214°
2026-04-28 13:20 54.61098 -5.87790 20 ft 9 kts 226°
2026-04-28 13:20 54.61086 -5.87904 19 ft 11 kts 290°
2026-04-28 13:20 54.61133 -5.88022 19 ft 12 kts 306°
2026-04-28 13:20 54.61155 -5.88033 19 ft 0 kts 38°
2026-04-28 13:21 54.61245 -5.87923 18 ft 44 kts 36°
2026-04-28 13:21 54.61660 -5.87429 20 ft 101 kts 34°
2026-04-28 13:22 54.62343 -5.86637 208 ft 129 kts 35°
2026-04-28 13:22 54.63137 -5.85806 647 ft 139 kts 32°
2026-04-28 13:22 54.64020 -5.84925 1065 ft 151 kts 36°
2026-04-28 13:22 54.64549 -5.83399 1527 ft 158 kts 88°
2026-04-28 13:23 54.64089 -5.81672 1954 ft 172 kts 138°
2026-04-28 13:23 54.62948 -5.81112 2380 ft 179 kts 185°
2026-04-28 13:23 54.61805 -5.81975 2824 ft 181 kts 203°
2026-04-28 13:23 54.60661 -5.82932 3200 ft 184 kts 201°
2026-04-28 13:24 54.59491 -5.83761 3575 ft 185 kts 196°
2026-04-28 13:24 54.58278 -5.84537 3967 ft 186 kts 195°
2026-04-28 13:24 54.57036 -5.85182 4355 ft 187 kts 189°
2026-04-28 13:24 54.55761 -5.85627 4745 ft 187 kts 184°
2026-04-28 13:25 54.54468 -5.85906 5142 ft 187 kts 180°
2026-04-28 13:25 54.53164 -5.86053 5530 ft 188 kts 178°
2026-04-28 13:25 54.51851 -5.86110 5907 ft 188 kts 172°
2026-04-28 13:25 54.50692 -5.85361 6293 ft 174 kts 141°
2026-04-28 13:26 54.49711 -5.84172 6679 ft 175 kts 139°
2026-04-28 13:26 54.48733 -5.82923 7050 ft 175 kts 138°
2026-04-28 13:26 54.47751 -5.81681 7421 ft 175 kts 139°
2026-04-28 13:26 54.46763 -5.80452 7794 ft 175 kts 138°
2026-04-28 13:27 54.45772 -5.79225 8167 ft 176 kts 139°
2026-04-28 13:27 54.44776 -5.78006 8534 ft 175 kts 139°
2026-04-28 13:27 54.43785 -5.76808 8887 ft 175 kts 139°
2026-04-28 13:27 54.42775 -5.75600 9197 ft 178 kts 139°
2026-04-28 13:28 54.41759 -5.74385 9513 ft 181 kts 139°
2026-04-28 13:28 54.40717 -5.73144 9826 ft 184 kts 139°
2026-04-28 13:28 54.39657 -5.71880 10147 ft 186 kts 139°
2026-04-28 13:28 54.38584 -5.70599 10458 ft 189 kts 139°
2026-04-28 13:29 54.37500 -5.69304 10746 ft 191 kts 139°
2026-04-28 13:29 54.36403 -5.67990 11046 ft 193 kts 139°
2026-04-28 13:29 54.35296 -5.66661 11351 ft 195 kts 138°
2026-04-28 13:29 54.34192 -5.65340 11635 ft 197 kts 138°
2026-04-28 13:30 54.33063 -5.63993 11919 ft 198 kts 138°
2026-04-28 13:30 54.31921 -5.62637 12232 ft 200 kts 138°
2026-04-28 13:30 54.30779 -5.61276 12539 ft 201 kts 138°
2026-04-28 13:30 54.29626 -5.59906 12847 ft 201 kts 137°
2026-04-28 13:31 54.27319 -5.57156 13477 ft 202 kts 135°
2026-04-28 13:31 54.26373 -5.55485 13789 ft 192 kts 119°
2026-04-28 13:31 54.25614 -5.53656 14094 ft 190 kts 116°
2026-04-28 13:32 54.24878 -5.51780 14406 ft 189 kts 116°
2026-04-28 13:32 54.24147 -5.49918 14686 ft 188 kts 116°
2026-04-28 13:32 54.23401 -5.48071 14927 ft 190 kts 117°
2026-04-28 13:32 54.22629 -5.46214 15132 ft 193 kts 117°
2026-04-28 13:33 54.21840 -5.44334 15356 ft 196 kts 117°
2026-04-28 13:33 54.21038 -5.42435 15579 ft 198 kts 117°
2026-04-28 13:33 54.20233 -5.40507 15790 ft 200 kts 116°
2026-04-28 13:33 54.19436 -5.38549 16001 ft 203 kts 117°
2026-04-28 13:34 54.18621 -5.36550 16177 ft 207 kts 117°
2026-04-28 13:34 54.17788 -5.34507 16358 ft 211 kts 117°
2026-04-28 13:34 54.16907 -5.32507 16530 ft 216 kts 120°
2026-04-28 13:34 54.15976 -5.30463 16721 ft 219 kts 120°
2026-04-28 13:35 54.15039 -5.28385 16900 ft 222 kts 119°
2026-04-28 13:35 54.14117 -5.26259 17080 ft 224 kts 118°
2026-04-28 13:35 54.13195 -5.24103 17265 ft 226 kts 118°
2026-04-28 13:35 54.12261 -5.21915 17368 ft 231 kts 118°
2026-04-28 13:36 54.11304 -5.19664 17412 ft 238 kts 118°
2026-04-28 13:36 54.10315 -5.17343 17436 ft 245 kts 118°
2026-04-28 13:36 54.09311 -5.14995 17447 ft 251 kts 118°
2026-04-28 13:36 54.08272 -5.12572 17444 ft 256 kts 119°
2026-04-28 13:37 54.07214 -5.10104 17451 ft 260 kts 119°
2026-04-28 13:37 54.06141 -5.07601 17449 ft 263 kts 119°
2026-04-28 13:37 54.05056 -5.05072 17447 ft 266 kts 119°
2026-04-28 13:37 54.03960 -5.02522 17448 ft 268 kts 119°
2026-04-28 13:38 54.02856 -4.99953 17446 ft 270 kts 119°
2026-04-28 13:38 54.01747 -4.97374 17448 ft 271 kts 119°
2026-04-28 13:38 54.00630 -4.94782 17447 ft 272 kts 119°
2026-04-28 13:38 53.99509 -4.92180 17445 ft 273 kts 119°
2026-04-28 13:39 53.98385 -4.89579 17448 ft 273 kts 119°
2026-04-28 13:39 53.97255 -4.86974 17445 ft 274 kts 120°
2026-04-28 13:39 53.96130 -4.84359 17452 ft 274 kts 119°
2026-04-28 13:39 53.95014 -4.81779 17432 ft 275 kts 119°
2026-04-28 13:40 53.93878 -4.79167 17433 ft 275 kts 120°
2026-04-28 13:40 53.92742 -4.76556 17432 ft 275 kts 120°
2026-04-28 13:40 53.91606 -4.73938 17432 ft 275 kts 120°
2026-04-28 13:40 53.90469 -4.71325 17448 ft 276 kts 120°
2026-04-28 13:41 53.89328 -4.68709 17449 ft 276 kts 119°
2026-04-28 13:41 53.88186 -4.66091 17443 ft 276 kts 119°
2026-04-28 13:41 53.87045 -4.63481 17439 ft 276 kts 119°
2026-04-28 13:41 53.85905 -4.60869 17437 ft 276 kts 119°
2026-04-28 13:42 53.84761 -4.58257 17428 ft 275 kts 119°
2026-04-28 13:42 53.83632 -4.55677 17428 ft 275 kts 119°
2026-04-28 13:42 53.82491 -4.53074 17426 ft 275 kts 119°
2026-04-28 13:42 53.81348 -4.50482 17430 ft 275 kts 120°
2026-04-28 13:43 53.80212 -4.47882 17430 ft 275 kts 119°
2026-04-28 13:43 53.79074 -4.45289 17427 ft 275 kts 119°
2026-04-28 13:43 53.77930 -4.42695 17426 ft 275 kts 119°
2026-04-28 13:43 53.76787 -4.40098 17425 ft 275 kts 119°
2026-04-28 13:44 53.75645 -4.37508 17424 ft 275 kts 120°
2026-04-28 13:44 53.74500 -4.34915 17423 ft 275 kts 119°
2026-04-28 13:44 53.73358 -4.32329 17424 ft 275 kts 120°
2026-04-28 13:44 53.72214 -4.29744 17422 ft 275 kts 120°
2026-04-28 13:45 53.71070 -4.27157 17424 ft 274 kts 120°
2026-04-28 13:45 53.69925 -4.24574 17422 ft 274 kts 120°
2026-04-28 13:45 53.68792 -4.22023 17424 ft 275 kts 120°
2026-04-28 13:45 53.67635 -4.19416 17424 ft 274 kts 120°
2026-04-28 13:46 53.66490 -4.16841 17437 ft 274 kts 120°
2026-04-28 13:46 53.65358 -4.14302 17448 ft 275 kts 119°
2026-04-28 13:46 53.64210 -4.11731 17433 ft 275 kts 120°
2026-04-28 13:46 53.63060 -4.09164 17426 ft 275 kts 120°
2026-04-28 13:47 53.61919 -4.06589 17426 ft 274 kts 119°
2026-04-28 13:47 53.60774 -4.04022 17423 ft 273 kts 119°
2026-04-28 13:47 53.59627 -4.01465 17423 ft 273 kts 120°
2026-04-28 13:47 53.58483 -3.98909 17423 ft 273 kts 120°
2026-04-28 13:48 53.57338 -3.96355 17424 ft 273 kts 120°
2026-04-28 13:48 53.56195 -3.93808 17424 ft 273 kts 119°
2026-04-28 13:48 53.55055 -3.91266 17421 ft 273 kts 120°
2026-04-28 13:48 53.53909 -3.88718 17421 ft 273 kts 120°
2026-04-28 13:49 53.52766 -3.86178 17421 ft 272 kts 120°
2026-04-28 13:49 53.51622 -3.83640 17421 ft 272 kts 120°
2026-04-28 13:49 53.50477 -3.81103 17421 ft 273 kts 120°
2026-04-28 13:49 53.49334 -3.78566 17429 ft 272 kts 120°
2026-04-28 13:50 53.48203 -3.76064 17416 ft 273 kts 120°
2026-04-28 13:50 53.47060 -3.73520 17416 ft 272 kts 119°
2026-04-28 13:50 53.45918 -3.70975 17416 ft 272 kts 119°
2026-04-28 13:50 53.44777 -3.68425 17415 ft 272 kts 119°
2026-04-28 13:51 53.43639 -3.65912 17416 ft 268 kts 120°
2026-04-28 13:51 53.42514 -3.63447 17415 ft 263 kts 120°
2026-04-28 13:51 53.41422 -3.61058 17414 ft 260 kts 120°
2026-04-28 13:51 53.40277 -3.58715 17424 ft 259 kts 122°
2026-04-28 13:52 53.39092 -3.56451 17416 ft 257 kts 123°
2026-04-28 13:52 53.37914 -3.54223 17415 ft 255 kts 123°
2026-04-28 13:52 53.36743 -3.51993 17413 ft 253 kts 123°
2026-04-28 13:52 53.35588 -3.49785 17413 ft 251 kts 123°
2026-04-28 13:53 53.34440 -3.47592 17410 ft 250 kts 123°
2026-04-28 13:53 53.33676 -3.46141 17411 ft 250 kts 123°
2026-04-28 13:53 53.32528 -3.43959 17411 ft 249 kts 123°
2026-04-28 13:53 53.31015 -3.41080 17407 ft 248 kts 123°
2026-04-28 13:54 53.29873 -3.38918 17404 ft 248 kts 122°
2026-04-28 13:54 53.29106 -3.37459 17410 ft 247 kts 123°
2026-04-28 13:54 53.27980 -3.35324 17409 ft 248 kts 123°
2026-04-28 13:54 53.26841 -3.33166 17407 ft 248 kts 123°
2026-04-28 13:55 53.25702 -3.31008 17405 ft 247 kts 123°
2026-04-28 13:55 53.24562 -3.28854 17406 ft 247 kts 123°
2026-04-28 13:55 53.23424 -3.26706 17406 ft 247 kts 123°
2026-04-28 13:55 53.22289 -3.24559 17404 ft 246 kts 123°
2026-04-28 13:56 53.21156 -3.22417 17406 ft 246 kts 123°
2026-04-28 13:56 53.20023 -3.20284 17420 ft 246 kts 122°
2026-04-28 13:56 53.18938 -3.18097 17412 ft 242 kts 117°
2026-04-28 13:56 53.18009 -3.15779 17409 ft 239 kts 113°
2026-04-28 13:57 53.17151 -3.13413 17411 ft 238 kts 112°
2026-04-28 13:57 53.16298 -3.11044 17409 ft 238 kts 112°
2026-04-28 13:57 53.15453 -3.08713 17412 ft 238 kts 113°
2026-04-28 13:57 53.14574 -3.06368 17410 ft 238 kts 113°
2026-04-28 13:58 53.13690 -3.04033 17418 ft 238 kts 114°
2026-04-28 13:58 53.12803 -3.01698 17420 ft 238 kts 114°
2026-04-28 13:58 53.11914 -2.99361 17416 ft 239 kts 114°
2026-04-28 13:58 53.11025 -2.97025 17413 ft 239 kts 114°
2026-04-28 13:59 53.10134 -2.94688 17410 ft 239 kts 114°
2026-04-28 13:59 53.09245 -2.92352 17409 ft 239 kts 114°
2026-04-28 13:59 53.08354 -2.90020 17408 ft 239 kts 114°
2026-04-28 13:59 53.07464 -2.87689 17407 ft 238 kts 115°
2026-04-28 14:00 53.06494 -2.85431 17404 ft 241 kts 118°
2026-04-28 14:00 53.05467 -2.83222 17404 ft 241 kts 119°
2026-04-28 14:00 53.04437 -2.81014 17387 ft 241 kts 119°
2026-04-28 14:00 53.03420 -2.78803 17388 ft 240 kts 118°
2026-04-28 14:01 53.02421 -2.76578 17385 ft 240 kts 118°
2026-04-28 14:01 53.01425 -2.74350 17384 ft 240 kts 118°
2026-04-28 14:01 53.00431 -2.72125 17381 ft 240 kts 118°
2026-04-28 14:01 52.99438 -2.69901 17388 ft 240 kts 118°
2026-04-28 14:02 52.98444 -2.67675 17379 ft 240 kts 118°
2026-04-28 14:02 52.97448 -2.65455 17413 ft 240 kts 117°
2026-04-28 14:02 52.96452 -2.63228 17391 ft 240 kts 117°
2026-04-28 14:02 52.95448 -2.60984 17155 ft 246 kts 118°
2026-04-28 14:03 52.94435 -2.58732 16752 ft 247 kts 118°
2026-04-28 14:03 52.93397 -2.56418 16334 ft 248 kts 118°
2026-04-28 14:03 52.92379 -2.54154 15932 ft 248 kts 118°
2026-04-28 14:03 52.91348 -2.51853 15529 ft 248 kts 118°
2026-04-28 14:04 52.90330 -2.49544 15142 ft 248 kts 119°
2026-04-28 14:04 52.89314 -2.47244 14751 ft 248 kts 119°
2026-04-28 14:04 52.88292 -2.44937 14369 ft 248 kts 119°
2026-04-28 14:04 52.87268 -2.42648 13954 ft 248 kts 120°
2026-04-28 14:05 52.86239 -2.40364 13527 ft 247 kts 120°
2026-04-28 14:05 52.85210 -2.38088 13104 ft 247 kts 120°
2026-04-28 14:05 52.84185 -2.35816 12679 ft 246 kts 120°
2026-04-28 14:05 52.83161 -2.33552 12266 ft 245 kts 121°
2026-04-28 14:06 52.82136 -2.31301 11859 ft 244 kts 121°
2026-04-28 14:06 52.81063 -2.29124 11455 ft 244 kts 124°
2026-04-28 14:06 52.79946 -2.27000 11058 ft 244 kts 125°
2026-04-28 14:06 52.78831 -2.24893 10667 ft 243 kts 125°
2026-04-28 14:07 52.77723 -2.22782 10275 ft 242 kts 124°
2026-04-28 14:07 52.76639 -2.20711 9849 ft 241 kts 125°
2026-04-28 14:07 52.75538 -2.18611 9581 ft 235 kts 125°
2026-04-28 14:07 52.74505 -2.16644 9483 ft 224 kts 125°
2026-04-28 14:08 52.73502 -2.14737 9418 ft 217 kts 124°
2026-04-28 14:08 52.72521 -2.12877 9404 ft 212 kts 124°
2026-04-28 14:08 52.71551 -2.11029 9181 ft 217 kts 124°
2026-04-28 14:08 52.70541 -2.09107 8781 ft 226 kts 125°
2026-04-28 14:09 52.69494 -2.07119 8396 ft 233 kts 126°
2026-04-28 14:09 52.68419 -2.05081 8018 ft 237 kts 126°
2026-04-28 14:09 52.67332 -2.03019 7679 ft 239 kts 127°
2026-04-28 14:09 52.66252 -2.00972 7516 ft 233 kts 127°
2026-04-28 14:10 52.65204 -1.98992 7448 ft 225 kts 127°
2026-04-28 14:10 52.64165 -1.97022 7101 ft 230 kts 127°
2026-04-28 14:10 52.63106 -1.95020 6729 ft 234 kts 127°
2026-04-28 14:10 52.62038 -1.93007 6332 ft 234 kts 127°
2026-04-28 14:11 52.60896 -1.91112 5927 ft 235 kts 142°
2026-04-28 14:11 52.59292 -1.90393 5560 ft 248 kts 173°
2026-04-28 14:11 52.57577 -1.90500 5189 ft 252 kts 178°
2026-04-28 14:11 52.55817 -1.90712 4783 ft 254 kts 179°
2026-04-28 14:12 52.54075 -1.91148 4389 ft 257 kts 196°
2026-04-28 14:12 52.52631 -1.92911 4177 ft 265 kts 231°
2026-04-28 14:12 52.51933 -1.95669 4088 ft 262 kts 264°
2026-04-28 14:12 52.52107 -1.98583 4048 ft 252 kts 286°
2026-04-28 14:13 52.52617 -2.01256 4015 ft 237 kts 305°
2026-04-28 14:13 52.53729 -2.03155 4009 ft 233 kts 326°
2026-04-28 14:13 52.55008 -2.04762 4007 ft 227 kts 334°
2026-04-28 14:13 52.56475 -2.05316 4009 ft 215 kts 13°
2026-04-28 14:14 52.57731 -2.04291 4005 ft 197 kts 45°
2026-04-28 14:14 52.58721 -2.02745 3995 ft 195 kts 47°
2026-04-28 14:14 52.59698 -2.01110 3663 ft 205 kts 49°
2026-04-28 14:14 52.60683 -1.99379 3264 ft 210 kts 49°
2026-04-28 14:15 52.61637 -1.97548 2880 ft 209 kts 53°
2026-04-28 14:15 52.62033 -1.95262 2506 ft 218 kts 91°
2026-04-28 14:15 52.61401 -1.92970 2221 ft 223 kts 127°
2026-04-28 14:15 52.60323 -1.91440 2082 ft 190 kts 135°
2026-04-28 14:16 52.59306 -1.90263 2056 ft 172 kts 139°
2026-04-28 14:16 52.58306 -1.89202 2027 ft 170 kts 140°
2026-04-28 14:16 52.57319 -1.88157 2003 ft 168 kts 139°
2026-04-28 14:16 52.56354 -1.87080 1988 ft 167 kts 137°
2026-04-28 14:17 52.55402 -1.85985 1997 ft 167 kts 138°
2026-04-28 14:17 52.54446 -1.84888 1997 ft 169 kts 139°
2026-04-28 14:17 52.53456 -1.83811 1985 ft 171 kts 139°
2026-04-28 14:17 52.52478 -1.82731 1847 ft 164 kts 139°
2026-04-28 14:18 52.51575 -1.81716 1633 ft 147 kts 138°
2026-04-28 14:18 52.50808 -1.80857 1455 ft 126 kts 134°
2026-04-28 14:18 52.50103 -1.80080 1245 ft 119 kts 136°
2026-04-28 14:18 52.49424 -1.79304 1080 ft 118 kts 134°
2026-04-28 14:19 52.48745 -1.78547 955 ft 119 kts 135°
2026-04-28 14:19 52.48056 -1.77777 793 ft 120 kts 132°
2026-04-28 14:19 52.47376 -1.77010 594 ft 118 kts 139°
2026-04-28 14:19 52.46691 -1.76267 424 ft 117 kts 141°
2026-04-28 14:20 52.46036 -1.75522 308 ft 106 kts 137°
2026-04-28 14:20 52.45697 -1.75129 320 ft 24 kts 152°
2026-04-28 14:20 52.45605 -1.75042 321 ft 14 kts 149°
2026-04-28 14:20 52.45517 -1.74949 319 ft 16 kts 144°
2026-04-28 14:21 52.45434 -1.74847 321 ft 14 kts 142°
2026-04-28 14:21 52.45411 -1.74739 323 ft 7 kts 58°
2026-04-28 14:21 52.45428 -1.74695 320 ft 4 kts 57°
2026-04-28 14:21 52.45444 -1.74653 320 ft 5 kts 57°
2026-04-28 14:22 52.45456 -1.74624 320 ft 1 kts 57°
2026-04-28 14:22 52.45456 -1.74623 320 ft 0 kts 57°
2026-04-28 14:22 52.45456 -1.74622 320 ft 0 kts 57°
2026-04-28 14:23 52.45465 -1.74596 320 ft 6 kts 65°
2026-04-28 14:23 52.45460 -1.74524 320 ft 8 kts 117°
2026-04-28 14:23 52.45433 -1.74434 319 ft 9 kts 116°
2026-04-28 14:23 52.45405 -1.74341 319 ft 9 kts 116°
2026-04-28 14:24 52.45377 -1.74249 319 ft 9 kts 117°
2026-04-28 14:24 52.45349 -1.74159 319 ft 9 kts 117°
2026-04-28 14:24 52.45321 -1.74068 318 ft 9 kts 117°
2026-04-28 14:24 52.45312 -1.73981 320 ft 6 kts 68°
2026-04-28 14:25 52.45325 -1.73948 320 ft 4 kts 55°
2026-04-28 14:25 52.45338 -1.73901 320 ft 6 kts 92°
2026-04-28 14:25 52.45308 -1.73859 320 ft 6 kts 146°
2026-04-28 14:25 52.45286 -1.73835 319 ft 2 kts 146°
2026-04-28 14:26 52.45278 -1.73826 320 ft 0 kts 146°